| time (UTC) | temp F | wind direction | speed MPH | gust MPH | rain 1hr in | rain 24hr in | rain mn in | humidity % | barometer mb |
| 20260905140025 | 65 | 355 | 6.0 | 15.0 | 0.00 | 0.00 | 0.00 | 91 | 1013.1 |
| 20260905134552 | 64 | 6 | 6.0 | 17.0 | 0.00 | 0.00 | 0.00 | 91 | 1013.0 |
| 20260905133010 | 64 | 293 | 4.0 | 9.0 | 0.00 | 0.00 | 0.00 | 94 | 1013.0 |
| 20260905131534 | 62 | 290 | 6.0 | 15.0 | 0.00 | 0.00 | 0.00 | 94 | 1013.1 |
| 20260905130058 | 62 | 348 | 6.0 | 11.0 | 0.00 | 0.00 | 0.00 | 95 | 1012.9 |
| 20260905124524 | 62 | 283 | 2.0 | 6.0 | 0.00 | 0.00 | 0.00 | 95 | 1013.3 |
| 20260905123040 | 62 | 178 | 2.0 | 7.0 | 0.00 | 0.00 | 0.00 | 96 | 1013.3 |
| 20260905121558 | 62 | 168 | 2.0 | 5.0 | 0.00 | 0.00 | 0.00 | 97 | 1013.3 |
| 20260905120024 | 60 | 1 | 2.0 | 7.0 | 0.00 | 0.00 | 0.00 | 96 | 1013.1 |
| 20260905114555 | 60 | 336 | 1.0 | 3.0 | 0.00 | 0.00 | 0.00 | 95 | 1012.9 |
| 20260905113048 | 60 | 63 | 1.0 | 3.0 | 0.00 | 0.00 | 0.00 | 96 | 1012.6 |
| 20260905111537 | 58 | 63 | 2.0 | 5.0 | 0.00 | 0.00 | 0.00 | 96 | 1012.6 |
| 20260905110101 | 57 | 25 | 2.0 | 4.0 | 0.00 | 0.00 | 0.00 | 95 | 1012.6 |
| 20260905110003 | 57 | 32 | 2.0 | 4.0 | 0.00 | 0.00 | 0.00 | 95 | 1012.6 |
| 20260905104526 | 57 | 223 | 1.0 | 4.0 | 0.00 | 0.00 | 0.00 | 95 | 1012.5 |
| 20260905103044 | 57 | 269 | 1.0 | 2.0 | 0.00 | 0.00 | 0.00 | 95 | 1012.1 |
| 20260905101510 | 57 | 269 | 2.0 | 3.0 | 0.00 | 0.00 | 0.00 | 95 | 1011.9 |
| 20260905100032 | 57 | 1 | 1.0 | 3.0 | 0.00 | 0.00 | 0.00 | 95 | 1011.7 |
| 20260905094550 | 57 | 344 | 2.0 | 4.0 | 0.00 | 0.00 | 0.00 | 95 | 1011.8 |
| 20260905093014 | 57 | 15 | 1.0 | 4.0 | 0.00 | 0.00 | 0.00 | 95 | 1011.6 |
| 20260905091537 | 57 | 331 | 1.0 | 4.0 | 0.00 | 0.00 | 0.00 | 94 | 1011.6 |
| 20260905090121 | 57 | 295 | 1.0 | 4.0 | 0.00 | 0.00 | 0.00 | 94 | 1011.8 |
| 20260905084542 | 57 | 28 | 3.0 | 4.0 | 0.00 | 0.00 | 0.00 | 93 | 1011.8 |
| 20260905083025 | 58 | 1 | 2.0 | 4.0 | 0.00 | 0.00 | 0.00 | 94 | 1011.8 |
| 20260905081515 | 58 | 46 | 1.0 | 3.0 | 0.00 | 0.00 | 0.00 | 94 | 1011.8 |
| 20260905080041 | 58 | 1 | 2.0 | 3.0 | 0.00 | 0.00 | 0.00 | 94 | 1011.7 |
| 20260905074559 | 59 | 314 | 2.0 | 3.0 | 0.00 | 0.00 | 0.00 | 94 | 1011.8 |
| 20260905074502 | 59 | 1 | 2.0 | 3.0 | 0.00 | 0.00 | 0.00 | 94 | 1011.8 |
| 20260905073023 | 59 | 1 | 1.0 | 3.0 | 0.00 | 0.00 | 0.00 | 94 | 1011.9 |
| 20260905071541 | 59 | 28 | 1.0 | 3.0 | 0.00 | 0.00 | 0.00 | 93 | 1012.1 |
| 20260905070002 | 59 | 28 | 1.0 | 3.0 | 0.00 | 0.00 | 0.00 | 93 | 1012.1 |
| 20260905064525 | 60 | 269 | 1.0 | 3.0 | 0.00 | 0.00 | 0.00 | 94 | 1012.2 |
| 20260905063042 | 60 | 178 | 1.0 | 5.0 | 0.00 | 0.00 | 0.00 | 94 | 1012.3 |
| 20260905061600 | 59 | 13 | 1.0 | 3.0 | 0.00 | 0.00 | 0.00 | 94 | 1012.5 |
| 20260905061506 | 59 | 35 | 1.0 | 3.0 | 0.00 | 0.00 | 0.00 | 94 | 1012.5 |
| 20260905060025 | 59 | 89 | 1.0 | 3.0 | 0.00 | 0.00 | 0.00 | 94 | 1012.4 |
| 20260905054509 | 59 | 35 | 1.0 | 3.0 | 0.00 | 0.00 | 0.00 | 93 | 1012.5 |
| 20260905053046 | 59 | 324 | 2.0 | 4.0 | 0.00 | 0.00 | 0.00 | 93 | 1012.5 |
| 20260905051533 | 58 | 39 | 1.0 | 4.0 | 0.00 | 0.00 | 0.00 | 93 | 1012.6 |
| 20260905050057 | 59 | 13 | 2.0 | 4.0 | 0.00 | 0.00 | 0.00 | 92 | 1012.7 |
| 20260905044529 | 59 | 1 | 2.0 | 3.0 | 0.00 | 0.00 | 0.00 | 92 | 1012.7 |
| 20260905043045 | 60 | 46 | 1.0 | 2.0 | 0.00 | 0.00 | 0.00 | 92 | 1012.7 |
| 20260905041511 | 60 | 269 | 1.0 | 5.0 | 0.00 | 0.00 | 0.00 | 92 | 1012.7 |
| 20260905040032 | 60 | 72 | 2.0 | 5.0 | 0.00 | 0.94 | 0.00 | 92 | 1012.8 |
| 20260905034520 | 60 | 20 | 4.0 | 6.0 | 0.00 | 0.94 | 0.00 | 92 | 1012.7 |
| 20260905033038 | 61 | 28 | 2.0 | 4.0 | 0.00 | 0.94 | 0.00 | 92 | 1012.7 |
| 20260905031504 | 61 | 349 | 4.0 | 6.0 | 0.00 | 0.94 | 0.00 | 92 | 1012.7 |
| 20260905030026 | 61 | 25 | 3.0 | 5.0 | 0.00 | 0.94 | 0.00 | 91 | 1012.8 |
| 20260905024546 | 62 | 21 | 2.0 | 5.0 | 0.00 | 0.94 | 0.00 | 91 | 1012.6 |
| 20260905023007 | 63 | 350 | 3.0 | 5.0 | 0.00 | 0.94 | 0.00 | 91 | 1012.6 |
| 20260905021534 | 63 | 324 | 3.0 | 4.0 | 0.00 | 0.94 | 0.00 | 91 | 1012.5 |
| 20260905020055 | 64 | 63 | 1.0 | 4.0 | 0.00 | 0.97 | 0.00 | 90 | 1012.6 |
| 20260905014517 | 65 | 15 | 1.0 | 3.0 | 0.00 | 0.97 | 0.00 | 90 | 1012.8 |
| 20260905013044 | 65 | 1 | 2.0 | 4.0 | 0.00 | 0.97 | 0.00 | 90 | 1013.0 |
| 20260905011555 | 65 | 1 | 2.0 | 4.0 | 0.00 | 0.97 | 0.00 | 90 | 1012.9 |
| 20260905010013 | 65 | 1 | 2.0 | 3.0 | 0.00 | 0.97 | 0.00 | 89 | 1012.6 |
| 20260905004542 | 66 | 1 | 2.0 | 5.0 | 0.00 | 0.97 | 0.00 | 89 | 1012.6 |
| 20260905003050 | 66 | 25 | 2.0 | 6.0 | 0.00 | 0.97 | 0.00 | 89 | 1012.6 |
| 20260905001516 | 67 | 8 | 4.0 | 7.0 | 0.00 | 0.97 | 0.00 | 89 | 1012.5 |
| 20260905000035 | 67 | 1 | 3.0 | 7.0 | 0.00 | 0.97 | 0.00 | 89 | 1012.3 |
| 20260904234507 | 68 | 15 | 3.0 | 6.0 | 0.00 | 0.97 | 0.00 | 88 | 1012.1 |
| 20260904233052 | 68 | 8 | 2.0 | 5.0 | 0.00 | 0.97 | 0.00 | 88 | 1012.3 |
| 20260904231533 | 69 | 1 | 2.0 | 5.0 | 0.00 | 0.97 | 0.00 | 87 | 1012.2 |
| 20260904224527 | 70 | 324 | 3.0 | 6.0 | 0.00 | 0.97 | 0.00 | 84 | 1012.0 |
| 20260904223051 | 71 | 331 | 2.0 | 6.0 | 0.00 | 0.97 | 0.00 | 81 | 1011.7 |
| 20260904221521 | 72 | 321 | 4.0 | 11.0 | 0.00 | 0.97 | 0.00 | 81 | 1011.8 |
| 20260904220044 | 72 | 329 | 4.0 | 9.0 | 0.00 | 0.97 | 0.00 | 80 | 1011.6 |
| 20260904214509 | 72 | 329 | 4.0 | 10.0 | 0.00 | 0.97 | 0.00 | 79 | 1011.6 |
| 20260904213041 | 72 | 6 | 6.0 | 13.0 | 0.00 | 0.97 | 0.00 | 79 | 1011.7 |
| 20260904211504 | 73 | 330 | 6.0 | 15.0 | 0.00 | 0.97 | 0.00 | 77 | 1011.8 |
| 20260904210032 | 74 | 291 | 5.0 | 19.0 | 0.00 | 0.97 | 0.00 | 77 | 1011.7 |
| 20260904204519 | 74 | 346 | 5.0 | 13.0 | 0.00 | 0.97 | 0.00 | 77 | 1012.0 |
| 20260904203053 | 74 | 335 | 12.0 | 22.0 | 0.00 | 0.97 | 0.00 | 75 | 1012.0 |
| 20260904201538 | 76 | 243 | 9.0 | 18.0 | 0.00 | 0.97 | 0.00 | 74 | 1012.1 |
| 20260904200009 | 76 | 310 | 4.0 | 14.0 | 0.00 | 0.97 | 0.00 | 75 | 1012.4 |
| 20260904194537 | 75 | 321 | 7.0 | 16.0 | 0.00 | 0.97 | 0.00 | 75 | 1012.5 |
| 20260904193057 | 75 | 159 | 7.0 | 14.0 | 0.00 | 0.97 | 0.00 | 76 | 1012.6 |
| 20260904191526 | 75 | 264 | 8.0 | 19.0 | 0.00 | 0.97 | 0.00 | 72 | 1012.7 |
| 20260904190048 | 76 | 352 | 8.0 | 18.0 | 0.00 | 0.97 | 0.00 | 74 | 1012.8 |
| 20260904184520 | 76 | 329 | 7.0 | 15.0 | 0.00 | 0.97 | 0.00 | 75 | 1012.9 |
| 20260904183037 | 75 | 269 | 4.0 | 14.0 | 0.00 | 0.97 | 0.00 | 76 | 1013.0 |
| 20260904181610 | 75 | 253 | 7.0 | 14.0 | 0.00 | 0.97 | 0.00 | 76 | 1013.1 |
| 20260904180034 | 75 | 308 | 6.0 | 15.0 | 0.00 | 0.97 | 0.00 | 77 | 1013.1 |
| 20260904174558 | 74 | 11 | 2.0 | 12.0 | 0.00 | 0.97 | 0.00 | 83 | 1013.2 |
| 20260904174502 | 74 | 223 | 3.0 | 12.0 | 0.00 | 0.97 | 0.00 | 83 | 1013.3 |
| 20260904173050 | 73 | 262 | 6.0 | 13.0 | 0.00 | 0.97 | 0.00 | 79 | 1013.6 |
| 20260904171607 | 74 | 310 | 5.0 | 16.0 | 0.00 | 0.97 | 0.00 | 80 | 1013.5 |
| 20260904170005 | 73 | 46 | 4.0 | 18.0 | 0.00 | 0.97 | 0.00 | 83 | 1013.4 |
| 20260904164532 | 73 | 233 | 5.0 | 12.0 | 0.00 | 0.97 | 0.00 | 84 | 1013.5 |
| 20260904163056 | 72 | 316 | 5.0 | 19.0 | 0.00 | 0.97 | 0.00 | 85 | 1013.8 |
| 20260904161523 | 72 | 328 | 7.0 | 14.0 | 0.00 | 0.97 | 0.00 | 83 | 1013.6 |
| 20260904160051 | 72 | 281 | 5.0 | 15.0 | 0.00 | 0.97 | 0.00 | 85 | 1013.6 |
| 20260904154533 | 71 | 293 | 7.0 | 14.0 | 0.00 | 0.97 | 0.00 | 87 | 1013.6 |
| 20260904153053 | 71 | 336 | 4.0 | 10.0 | 0.00 | 0.97 | 0.00 | 88 | 1013.4 |
| 20260904151511 | 71 | 20 | 5.0 | 9.0 | 0.00 | 0.97 | 0.00 | 89 | 1013.6 |
| 20260904150039 | 69 | 310 | 3.0 | 11.0 | 0.00 | 0.97 | 0.00 | 89 | 1013.8 |
| 20260904144525 | 69 | 348 | 9.0 | 13.0 | 0.00 | 0.97 | 0.00 | 89 | 1013.6 |
| 20260904143101 | 68 | 308 | 4.0 | 13.0 | 0.00 | 0.97 | 0.00 | 90 | 1013.6 |
| 20260904143010 | 68 | 25 | 4.0 | 13.0 | 0.00 | 0.97 | 0.00 | 90 | 1013.6 |
| 20260904141544 | 68 | 315 | 4.0 | 9.0 | 0.00 | 0.97 | 0.00 | 89 | 1013.6 |